Terminal Aerodrome Forecast
Issued by NWS Jackson, KY

Home | Current Version | Previous Version | Text Only | Print | Product List | Glossary On
Versions: 1 2 3 4 5 6 7 8 9 10 11 12 13 14 15 16 17 18 19 20
000
FTUS43 KJKL 250500
TAFLOZ
TAF
KLOZ 250526Z 2506/2606 00000KT 1/4SM FG VV001
     FM251200 VRB03KT 2SM BR SCT004 BKN008
     FM251330 VRB05KT P6SM FEW020=

USA.gov is the U.S. government's official web portal to all federal, state and local government web resources and services.